| time (UTC) | temp F | wind direction | speed knots | gust knots | rain 1hr in | rain 24hr in | rain mn in | humidity % | barometer mb |
| 20260509190105 | 67 | 145 | 6.1 | 19.1 | 0.02 | 0.02 | 0.02 | 59 | 1009.4 |
| 20260509184551 | 69 | 360 | 3.5 | 12.2 | 0.00 | 0.00 | 0.00 | 55 | 1010.1 |
| 20260509183048 | 69 | 360 | 5.2 | 13.0 | 0.00 | 0.00 | 0.00 | 54 | 1009.9 |
| 20260509181548 | 70 | 360 | 6.1 | 15.6 | 0.00 | 0.00 | 0.00 | 51 | 1010.0 |
| 20260509180052 | 70 | 360 | 4.3 | 11.3 | 0.00 | 0.00 | 0.00 | 50 | 1009.7 |
| 20260509174546 | 70 | 360 | 1.7 | 7.8 | 0.00 | 0.00 | 0.00 | 51 | 1009.6 |
| 20260509173048 | 70 | 131 | 5.2 | 13.9 | 0.00 | 0.00 | 0.00 | 52 | 1009.1 |
| 20260509171643 | 70 | 360 | 5.2 | 13.0 | 0.00 | 0.00 | 0.00 | 50 | 1009.3 |
| 20260509170041 | 70 | 360 | 4.3 | 14.8 | 0.00 | 0.00 | 0.00 | 51 | 1009.7 |
| 20260509164547 | 70 | 360 | 5.2 | 11.3 | 0.00 | 0.00 | 0.00 | 51 | 1010.3 |
| 20260509163038 | 70 | 360 | 5.2 | 13.0 | 0.00 | 0.00 | 0.00 | 50 | 1010.4 |
| 20260509161538 | 71 | 360 | 5.2 | 11.3 | 0.00 | 0.00 | 0.00 | 47 | 1010.2 |
| 20260509160036 | 71 | 135 | 4.3 | 13.0 | 0.00 | 0.00 | 0.00 | 48 | 1010.3 |
| 20260509154536 | 72 | 360 | 4.3 | 12.2 | 0.00 | 0.00 | 0.00 | 46 | 1010.2 |
| 20260509153035 | 73 | 121 | 4.3 | 8.7 | 0.00 | 0.00 | 0.00 | 43 | 1010.2 |
| 20260509151537 | 73 | 166 | 3.5 | 9.6 | 0.00 | 0.00 | 0.00 | 44 | 1010.2 |
| 20260509150036 | 73 | 164 | 4.3 | 9.6 | 0.00 | 0.00 | 0.00 | 38 | 1010.3 |
| 20260509144533 | 72 | 360 | 2.6 | 7.0 | 0.00 | 0.00 | 0.00 | 40 | 1010.3 |
| 20260509143028 | 72 | 360 | 3.5 | 11.3 | 0.00 | 0.00 | 0.00 | 41 | 1010.4 |
| 20260509141526 | 71 | 360 | 3.5 | 12.2 | 0.00 | 0.00 | 0.00 | 44 | 1010.5 |
| 20260509140025 | 71 | 125 | 2.6 | 12.2 | 0.00 | 0.00 | 0.00 | 43 | 1010.7 |
| 20260509134523 | 71 | 143 | 6.1 | 10.4 | 0.00 | 0.00 | 0.00 | 45 | 1011.1 |
| 20260509133021 | 71 | 360 | 5.2 | 13.9 | 0.00 | 0.00 | 0.00 | 40 | 1011.7 |
| 20260509131526 | 71 | 360 | 2.6 | 7.8 | 0.00 | 0.00 | 0.00 | 41 | 1011.7 |
| 20260509130020 | 72 | 360 | 1.7 | 5.2 | 0.00 | 0.00 | 0.00 | 43 | 1011.7 |
| 20260509124522 | 72 | 136 | 0.9 | 4.3 | 0.00 | 0.00 | 0.00 | 44 | 1011.8 |
| 20260509123017 | 70 | 141 | 1.7 | 7.0 | 0.00 | 0.00 | 0.00 | 46 | 1011.9 |
| 20260509121524 | 70 | 187 | 3.5 | 7.8 | 0.00 | 0.00 | 0.00 | 46 | 1012.3 |
| 20260509120016 | 70 | 155 | 5.2 | 10.4 | 0.00 | 0.00 | 0.00 | 47 | 1011.7 |
| 20260509114522 | 70 | 186 | 1.7 | 3.5 | 0.00 | 0.00 | 0.00 | 52 | 1013.0 |
| 20260509113013 | 70 | 137 | 4.3 | 8.7 | 0.00 | 0.00 | 0.00 | 47 | 1012.3 |
| 20260509111512 | 71 | 201 | 1.7 | 12.2 | 0.00 | 0.00 | 0.00 | 45 | 1013.2 |
| 20260509110011 | 71 | 203 | 1.7 | 8.7 | 0.00 | 0.00 | 0.00 | 41 | 1012.9 |
| 20260509104509 | 72 | 164 | 3.5 | 9.6 | 0.00 | 0.00 | 0.00 | 41 | 1013.3 |
| 20260509103005 | 70 | 187 | 0.9 | 7.0 | 0.00 | 0.00 | 0.00 | 50 | 1013.3 |
| 20260509101503 | 69 | 257 | 1.7 | 6.1 | 0.00 | 0.00 | 0.00 | 53 | 1013.9 |
| 20260509100005 | 68 | 39 | 2.6 | 9.6 | 0.00 | 0.00 | 0.00 | 56 | 1013.0 |
| 20260509094601 | 68 | 118 | 8.7 | 12.2 | 0.00 | 0.00 | 0.00 | 56 | 1013.5 |
| 20260509093100 | 68 | 172 | 2.6 | 7.0 | 0.00 | 0.00 | 0.00 | 54 | 1015.2 |
| 20260509091559 | 69 | 176 | 3.5 | 9.6 | 0.00 | 0.00 | 0.00 | 53 | 1015.0 |
| 20260509090058 | 69 | 121 | 4.3 | 9.6 | 0.00 | 0.00 | 0.00 | 50 | 1015.3 |
| 20260509084601 | 70 | 150 | 3.5 | 7.8 | 0.00 | 0.00 | 0.00 | 47 | 1015.4 |
| 20260509083055 | 69 | 173 | 5.2 | 8.7 | 0.00 | 0.00 | 0.00 | 46 | 1015.7 |
| 20260509081553 | 69 | 184 | 2.6 | 9.6 | 0.00 | 0.00 | 0.00 | 49 | 1015.6 |
| 20260509080052 | 69 | 109 | 1.7 | 7.0 | 0.00 | 0.00 | 0.00 | 50 | 1015.4 |
| 20260509074558 | 68 | 189 | 1.7 | 7.8 | 0.00 | 0.00 | 0.00 | 54 | 1015.2 |
| 20260509073044 | 67 | 283 | 0.9 | 7.0 | 0.00 | 0.00 | 0.00 | 59 | 1015.2 |
| 20260509071543 | 66 | 360 | 2.6 | 7.0 | 0.00 | 0.00 | 0.00 | 59 | 1014.9 |
| 20260509070044 | 67 | 257 | 1.7 | 7.8 | 0.00 | 0.00 | 0.00 | 57 | 1014.5 |
| 20260509064555 | 66 | 360 | 0.9 | 4.3 | 0.00 | 0.00 | 0.00 | 58 | 1014.3 |
| 20260509063043 | 66 | 360 | 0.0 | 2.6 | 0.00 | 0.00 | 0.00 | 59 | 1014.5 |
| 20260509061537 | 65 | 360 | 0.0 | 2.6 | 0.00 | 0.00 | 0.00 | 60 | 1014.5 |
| 20260509060031 | 64 | 360 | 0.0 | 1.7 | 0.00 | 0.00 | 0.00 | 62 | 1014.6 |
| 20260509054528 | 62 | 80 | 0.0 | 0.9 | 0.00 | 0.12 | 0.00 | 64 | 1014.8 |
| 20260509053026 | 61 | 360 | 0.0 | 2.6 | 0.00 | 0.12 | 0.00 | 67 | 1014.4 |
| 20260509051530 | 60 | 50 | 0.0 | 0.0 | 0.00 | 0.12 | 0.00 | 67 | 1014.5 |
| 20260509050022 | 60 | 50 | 0.0 | 0.0 | 0.00 | 0.12 | 0.00 | 69 | 1014.5 |
| 20260509044519 | 60 | 50 | 0.0 | 0.0 | 0.00 | 0.15 | 0.00 | 68 | 1014.6 |
| 20260509043016 | 59 | 50 | 0.0 | 0.0 | 0.00 | 0.15 | 0.00 | 68 | 1014.6 |
| 20260509041515 | 59 | 50 | 0.0 | 0.0 | 0.00 | 0.15 | 0.00 | 68 | 1014.5 |
| 20260509040014 | 59 | 50 | 0.0 | 0.0 | 0.00 | 0.15 | 0.00 | 68 | 1014.4 |
| 20260509034535 | 59 | 51 | 0.0 | 0.0 | 0.00 | 0.22 | 0.00 | 68 | 1014.4 |
| 20260509033012 | 59 | 360 | 0.0 | 0.0 | 0.00 | 0.22 | 0.00 | 68 | 1014.4 |
| 20260509031510 | 59 | 360 | 0.0 | 0.0 | 0.00 | 0.22 | 0.00 | 68 | 1014.4 |
| 20260509030008 | 59 | 53 | 0.0 | 0.0 | 0.00 | 0.22 | 0.00 | 68 | 1014.5 |
| 20260509024507 | 59 | 55 | 0.0 | 0.0 | 0.00 | 0.24 | 0.00 | 68 | 1014.7 |
| 20260509023005 | 59 | 360 | 0.0 | 0.0 | 0.00 | 0.24 | 0.00 | 68 | 1015.0 |
| 20260509021502 | 59 | 360 | 0.0 | 0.0 | 0.00 | 0.24 | 0.00 | 68 | 1015.1 |
| 20260509020101 | 60 | 360 | 0.0 | 0.0 | 0.00 | 0.24 | 0.00 | 68 | 1015.2 |
| 20260509014559 | 60 | 360 | 0.0 | 0.0 | 0.00 | 0.28 | 0.00 | 67 | 1015.0 |
| 20260509013059 | 60 | 360 | 0.0 | 0.0 | 0.00 | 0.28 | 0.00 | 67 | 1015.1 |
| 20260509011558 | 60 | 51 | 0.0 | 0.0 | 0.00 | 0.28 | 0.00 | 68 | 1015.1 |
| 20260509004614 | 61 | 360 | 0.0 | 0.0 | 0.00 | 0.28 | 0.00 | 67 | 1015.3 |
| 20260509003053 | 61 | 360 | 0.0 | 0.0 | 0.00 | 0.28 | 0.00 | 67 | 1015.4 |
| 20260509001554 | 61 | 360 | 0.0 | 0.0 | 0.00 | 0.28 | 0.00 | 67 | 1015.4 |
| 20260509000050 | 61 | 360 | 0.0 | 0.0 | 0.00 | 0.28 | 0.00 | 67 | 1015.5 |
| 20260508234550 | 61 | 360 | 0.0 | 0.0 | 0.00 | 0.28 | 0.00 | 67 | 1015.4 |
| 20260508233049 | 61 | 360 | 0.0 | 2.6 | 0.00 | 0.28 | 0.00 | 67 | 1015.4 |
| 20260508231547 | 62 | 360 | 0.0 | 0.9 | 0.00 | 0.28 | 0.00 | 67 | 1015.6 |
| 20260508230044 | 62 | 50 | 0.0 | 0.0 | 0.00 | 0.28 | 0.00 | 67 | 1015.8 |
| 20260508224549 | 62 | 50 | 0.0 | 0.0 | 0.00 | 0.28 | 0.00 | 67 | 1015.7 |
| 20260508223048 | 63 | 50 | 0.0 | 0.0 | 0.00 | 0.28 | 0.00 | 67 | 1015.6 |
| 20260508221539 | 63 | 50 | 0.0 | 0.0 | 0.00 | 0.28 | 0.00 | 66 | 1015.6 |
| 20260508220036 | 63 | 50 | 0.0 | 0.0 | 0.00 | 0.28 | 0.00 | 66 | 1015.5 |
| 20260508214552 | 63 | 50 | 0.0 | 0.0 | 0.00 | 0.28 | 0.28 | 65 | 1015.4 |
| 20260508213034 | 64 | 50 | 0.0 | 0.0 | 0.00 | 0.28 | 0.28 | 65 | 1015.4 |
| 20260508211533 | 64 | 119 | 0.0 | 0.0 | 0.00 | 0.28 | 0.28 | 65 | 1015.3 |
| 20260508210037 | 64 | 119 | 0.0 | 0.0 | 0.00 | 0.28 | 0.28 | 64 | 1015.2 |
| 20260508204536 | 64 | 119 | 0.0 | 0.9 | 0.00 | 0.28 | 0.28 | 64 | 1015.3 |
| 20260508203031 | 64 | 119 | 0.0 | 0.9 | 0.00 | 0.28 | 0.28 | 64 | 1015.2 |
| 20260508201531 | 64 | 119 | 0.0 | 1.7 | 0.00 | 0.28 | 0.28 | 63 | 1015.1 |
| 20260508200030 | 65 | 119 | 0.0 | 0.0 | 0.00 | 0.28 | 0.28 | 63 | 1015.0 |
| 20260508194528 | 65 | 119 | 0.0 | 0.0 | 0.00 | 0.28 | 0.28 | 62 | 1015.0 |
| 20260508193045 | 65 | 119 | 0.0 | 0.0 | 0.00 | 0.28 | 0.28 | 61 | 1014.9 |
| 20260508191524 | 65 | 119 | 0.0 | 0.0 | 0.00 | 0.28 | 0.28 | 61 | 1014.7 |